Location: Fundy National Park
(45.6138°N, 65.0316°W)
Time: 18:42:01
(UTC-04:00)

BlueWalker 3 - Visible Passes

Search period start: 28 November 2022 00:00
Search period end: 08 December 2022 00:00
Orbit: 500 x 519 km, 53.2° (Epoch: 28 November)

Date Brightness Start Highest point End Pass type
(mag) Time Alt. Az. Time Alt. Az. Time Alt. Az.
28 Nov 2.8 17:56:14 10° W 17:59:58 41° NNW 18:02:15 20° NE visible
28 Nov 4.6 19:36:01 10° WNW 19:37:05 16° NW 19:37:05 16° NW visible
29 Nov 2.8 17:37:55 10° W 17:41:38 40° NNW 17:44:37 14° NE visible
29 Nov 4.2 19:17:41 10° WNW 19:19:26 20° NW 19:19:26 20° NW visible
30 Nov 2.9 17:19:35 10° W 17:23:17 39° NNW 17:26:57 10° NE visible
30 Nov 3.7 18:59:20 10° WNW 19:01:47 24° NNW 19:01:47 24° NNW visible
01 Dec 3.4 18:41:00 10° WNW 18:44:07 26° N 18:44:07 26° N visible
02 Dec 3.3 18:22:39 10° NW 18:26:00 26° N 18:26:28 25° NNE visible
03 Dec 3.3 18:04:17 10° NW 18:07:39 26° N 18:08:50 22° NNE visible
03 Dec 4.9 19:43:08 10° NW 19:43:40 13° NW 19:43:40 13° NW visible
04 Dec 3.3 17:45:56 10° NW 17:49:17 26° N 17:51:14 18° NE visible
04 Dec 4.3 19:24:44 10° NW 19:26:04 20° NW 19:26:04 20° NW visible
05 Dec 3.2 17:27:33 10° NW 17:30:56 27° N 17:33:41 13° ENE visible
05 Dec 3.5 19:06:20 10° NW 19:08:31 30° NW 19:08:31 30° NW visible
06 Dec 3.2 17:09:09 10° NW 17:12:34 27° N 17:15:55 10° ENE visible
06 Dec 2.5 18:47:56 10° NW 18:51:03 47° NNW 18:51:03 47° NNW visible
07 Dec 1.9 18:29:32 10° NW 18:33:23 60° NNE 18:33:40 58° NE visible
